TimeCDT,TemperatureF,Dew PointF,Humidity,Sea Level PressureIn,VisibilityMPH,Wind Direction,Wind SpeedMPH,Gust SpeedMPH,PrecipitationIn,Events,Conditions,WindDirDegrees,DateUTC
12:52 AM,23.0,18.0,81,30.33,10.0,NNW,6.9,-,N/A,,Clear,340,2013-04-18 05:52:00
1:52 AM,19.9,17.1,89,30.32,10.0,North,5.8,-,N/A,,Clear,10,2013-04-18 06:52:00
2:52 AM,17.1,15.1,92,30.32,10.0,Calm,Calm,-,N/A,,Clear,0,2013-04-18 07:52:00
3:52 AM,16.0,12.9,88,30.30,10.0,NW,5.8,-,N/A,,Clear,310,2013-04-18 08:52:00
4:52 AM,14.0,12.0,92,30.29,10.0,Calm,Calm,-,N/A,,Clear,0,2013-04-18 09:52:00
5:52 AM,15.1,12.0,88,30.29,10.0,Calm,Calm,-,N/A,,Clear,0,2013-04-18 10:52:00
6:52 AM,12.9,10.9,92,30.30,10.0,Calm,Calm,-,N/A,,Clear,0,2013-04-18 11:52:00
7:52 AM,16.0,15.1,96,30.30,10.0,Calm,Calm,-,N/A,,Clear,0,2013-04-18 12:52:00
8:52 AM,21.9,18.0,85,30.29,10.0,Calm,Calm,-,N/A,,Clear,0,2013-04-18 13:52:00
9:52 AM,27.0,19.0,72,30.29,10.0,Variable,5.8,-,N/A,,Clear,0,2013-04-18 14:52:00
10:52 AM,28.9,19.9,69,30.28,10.0,Calm,Calm,-,N/A,,Clear,0,2013-04-18 15:52:00
11:52 AM,30.9,19.0,61,30.25,10.0,NW,6.9,-,N/A,,Clear,320,2013-04-18 16:52:00
12:52 PM,33.1,15.1,48,30.24,10.0,WNW,9.2,-,N/A,,Clear,300,2013-04-18 17:52:00
1:52 PM,35.1,21.9,59,30.22,10.0,WNW,10.4,-,N/A,,Clear,290,2013-04-18 18:52:00
2:52 PM,35.1,19.9,54,30.21,10.0,NW,8.1,-,N/A,,Clear,320,2013-04-18 19:52:00
3:52 PM,36.0,19.0,50,30.19,10.0,WNW,9.2,-,N/A,,Clear,300,2013-04-18 20:52:00
4:52 PM,36.0,18.0,48,30.18,10.0,West,6.9,-,N/A,,Clear,270,2013-04-18 21:52:00
5:52 PM,37.0,19.0,48,30.16,10.0,SW,8.1,-,N/A,,Scattered Clouds,230,2013-04-18 22:52:00
6:52 PM,35.1,19.0,52,30.16,10.0,West,4.6,-,N/A,,Overcast,270,2013-04-18 23:52:00
7:52 PM,35.1,19.9,54,30.14,10.0,SW,3.5,-,N/A,,Overcast,230,2013-04-19 00:52:00
8:52 PM,34.0,19.9,56,30.12,10.0,South,4.6,-,N/A,,Overcast,170,2013-04-19 01:52:00
9:52 PM,33.1,21.9,64,30.10,10.0,South,3.5,-,N/A,,Overcast,180,2013-04-19 02:52:00
10:29 PM,33.8,21.2,60,30.03,8.0,Calm,Calm,-,0.00,Snow,Light Snow,0,2013-04-19 03:29:00
10:52 PM,32.0,24.1,73,30.10,10.0,ESE,4.6,-,0.00,Snow,Light Snow,110,2013-04-19 03:52:00
11:52 PM,30.0,26.1,85,30.08,4.0,ESE,4.6,-,0.01,Snow,Light Snow,120,2013-04-19 04:52:00